Regional Weather Roundup
Issued by NWS Sterling, VA

Home | Current Version | Previous Version | Text Only | Print | Product List | Glossary Off
Versions: 1 2 3 4 5 6 7 8 9 10 11 12 13 14 15 16 17 18 19 20 21 22 23 24 25 26 27 28

000
ASUS41 KLWX 230511
RWRLWX

REGIONAL WEATHER ROUNDUP
NATIONAL WEATHER SERVICE BALTIMORE MD/WASHINGTON DC
1200 AM EST THU NOV 23 2017

Note: "FAIR" indicates few or no clouds below 12,000 feet
with no significant weather and/or obstructions to visibility.
 TC=TEMPERATURE CELSIUS

 * =Non NWS site. Station does not report precipitation (e.g. rain,
    snow, etc.), thunder, or fog.

DCZ001-MDZ009-015-VAZ040>042-051-053>054-230600-
WASHINGTON METRO

CITY           SKY/WX    TMP DP  RH WIND       PRES   REMARKS
WASHINGTON NAT PTCLDY    38  24  57 NW7       30.19F
DULLES         PTCLDY    34  23  64 NW9       30.18F WCI  27
ANDREWS AFB    CLEAR     35  24  64 N7        30.16F
FT BELVOIR     CLEAR     37  22  55 NW6       30.18F
QUANTICO       CLEAR     36  24  62 N7        30.21S
COLLEGE PARK*  CLEAR     33  24  69 CALM      30.18F
LEESBURG*      CLEAR     34  28  80 NW10      30.19F WCI  26
MANASSAS*      CLEAR     31  24  75 NW7       30.20S
GAITHERSBURG*  CLEAR     32  23  69 NW5       30.18R

$$

MDZ006>007-011-014-230600-
BALTIMORE METRO

CITY           SKY/WX    TMP DP  RH WIND       PRES   REMARKS
BWI AIRPORT    PTCLDY    32  24  72 SW5       30.18S
MD SCIENCE CTR   N/A     39  22  50 MISG      30.17F
MARTIN STATE   PTCLDY    34  27  75 W6        30.19S
FORT MEADE*    CLEAR     30  27  86 CALM      30.21S

$$

MDZ012-015-019>023-230600-
MARYLAND EASTERN SHORE

CITY           SKY/WX    TMP DP  RH WIND       PRES   REMARKS
OCEAN CITY     PTCLDY    37  28  70 N9        30.14S
SALISBURY      CLOUDY    38  26  62 N10       30.14F
CAMBRIDGE*     CLEAR     41  25  52 NW16      30.16F
EASTON*        CLEAR     39  25  57 N7        30.19F

$$

MDZ017>025-230600-
SOUTHERN MARYLAND

CITY           SKY/WX    TMP DP  RH WIND       PRES   REMARKS
PATUXENT RIVER CLEAR     39  29  67 N16       30.17F
ST INIGOES     CLEAR     39  27  62 W3        30.17S
LEONARDTOWN*   CLEAR     36  27  69 NW3       30.19S

$$

MDZ003>005-230600-
NORTH CENTRAL MARYLAND

CITY           SKY/WX    TMP DP  RH WIND       PRES   REMARKS
FREDERICK*     CLOUDY    34  21  60 CALM      30.22S
HAGERSTOWN APT CLOUDY    35  22  58 NW8       30.17F WCI  29
WESTMINSTER*   CLOUDY    32  23  69 CALM      30.16R

$$

MDZ501>502-230600-
WESTERN MARYLAND

CITY           SKY/WX    TMP DP  RH WIND       PRES   REMARKS
OAKLAND*       CLOUDY    23  18  80 NW7       30.06S
CUMBERLAND*    CLOUDY    34  21  60 NW7       30.23F

$$

VAZ025>031-230600-
SHENANDOAH VALLEY

CITY           SKY/WX    TMP DP  RH WIND       PRES   REMARKS
WINCHESTER*    MOCLDY    32  21  64 W6        30.18S
FRONT ROYAL*   CLEAR     30  23  74 MISG      30.19R
LURAY*         CLOUDY    30  27  86 CALM      30.18F
NEW MARKET*    CLOUDY    24  21  87 CALM      30.18S
STAUNTON*      CLOUDY    24  20  85 CALM      30.19S
WAYNESBORO*    CLEAR     28  22  78 CALM      30.17S

$$

WVZ021-048>050-054>055-230600-
EASTERN WEST VIRGINIA PANHANDLE

CITY           SKY/WX    TMP DP  RH WIND       PRES   REMARKS
MARTINSBURG    CLOUDY    34  19  54 NW12      30.18S WCI  25
PETERSBURG*    CLOUDY    26  21  79 CALM      30.20R

$$

VAZ036>039-050-230600-
CENTRAL FOOTHILLS

CITY           SKY/WX    TMP DP  RH WIND       PRES   REMARKS
CHARLOTTESVILL CLEAR     37  22  54 N3        30.17R
CULPEPER*      CLEAR     34  21  59 CALM      30.20R
ORANGE*        CLEAR     28  23  80 CALM      30.18S
GORDONSVILLE*  CLOUDY    28  24  84 CALM      30.18S
WARRENTON*     NOT AVBL

$$

VAZ055>057-230600-
NORTH AND CENTRAL PIEDMONT

CITY           SKY/WX    TMP DP  RH WIND       PRES   REMARKS
FREDERICKSBRG* CLEAR     37  26  64 N5        30.19F
STAFFORD*      CLEAR     31  24  74 CALM      30.24R

$$

NCZ024-NYZ072-PAZ021-071-VAZ022-071-230600-
OTHER REGIONAL OBSERVATIONS

CITY           SKY/WX    TMP DP  RH WIND       PRES   REMARKS
NEW YORK CITY  CLEAR     35  19  52 NW9G22    30.10S WCI  28
PHILADELPHIA   CLEAR     36  22  56 N7        30.15S
PITTSBURGH     CLOUDY    29  22  75 W5        30.20F
ROANOKE        CLOUDY    32  22  66 NW8       30.20F WCI  25
RICHMOND       CLOUDY    37  25  61 N5        30.19S
RALEIGH        MOCLDY    43  26  51 N5        30.17S

$$

ANZ530>537-230600-
MARINE OBSERVATIONS

STATION/POSITION TIME  TEMP    WIND        PRES
                       AIR SEA DIR/SP/G
                 (UTC) (F)     (DEG/KT/KT) (MB)
THOMAS PT LIGHT  0500   39 52  330/ 12/ 15   N/A
BALT KEY BRIDGE  0448   39     330/ 12/ 14 1021.7F
COVE POINT       0448   41     360/ 18/ 23 1022.0F
LEWISETTA        0448   42 51  360/ 11/ 15 1021.7F
SOLOMONS ISLAND  0436   40 53  330/  9/ 11 1021.4F
PINEY POINT      0448          350/ 14/ 17   N/A

$$





USA.gov is the U.S. government's official web portal to all federal, state and local government web resources and services.